Location: Unspecified
(36.0525°N, 0.0000°E)
Time: 14:10:44
(UTC+00:00)

SL-16 DEB - Visible Passes

Search period start: 04 April 2026 00:00
Search period end: 14 April 2026 00:00
Orbit: 812 x 953 km, 70.7° (Epoch: 27 March)

Date Brightness Start Highest point End Pass type
(mag) Time Alt. Az. Time Alt. Az. Time Alt. Az.
9 Apr ? 04:42:26 10° ESE 04:44:37 12° E 04:46:47 10° ENE visible
10 Apr ? 04:38:37 10° SE 04:41:45 16° E 04:44:53 10° ENE visible
11 Apr ? 04:35:07 10° SE 04:38:54 19° E 04:42:42 10° ENE visible
12 Apr ? 04:31:48 10° SSE 04:36:04 24° ESE 04:40:21 10° NE visible
13 Apr ? 04:28:37 10° SSE 04:33:15 29° ESE 04:37:54 10° NE visible
